2020-12-09 00:07:50 r, 20.86m,0000000000Hz,0001195747c,0000002.595s, 010.6C,00002191
2020-12-09 00:17:52 r, 20.89m,0000000000Hz,0001221182c,0000002.650s, 010.3C,00002191
2020-12-09 00:27:51 r, 20.89m,0000000000Hz,0001217614c,0000002.642s, 010.3C,00002191
2020-12-09 00:37:50 r, 20.89m,0000000001Hz,0001215210c,0000002.637s, 009.9C,00002191
2020-12-09 00:47:53 r, 20.89m,0000000001Hz,0001221641c,0000002.651s, 009.9C,00002191
2020-12-09 00:57:51 r, 20.89m,0000000000Hz,0001221412c,0000002.651s, 009.9C,00002191
2020-12-09 01:07:50 r, 20.89m,0000000000Hz,0001220556c,0000002.649s, 009.9C,00002191
2020-12-09 01:17:51 r, 20.89m,0000000000Hz,0001215780c,0000002.638s, 009.6C,00002191
2020-12-09 01:27:51 r, 20.86m,0000000000Hz,0001187961c,0000002.578s, 009.6C,00002191
2020-12-09 01:37:50 r, 20.83m,0000000000Hz,0001158167c,0000002.513s, 009.6C,00002191
2020-12-09 01:47:52 r, 20.80m,0000000001Hz,0001129335c,0000002.451s, 009.6C,00002191
2020-12-09 01:57:51 r, 20.79m,0000000000Hz,0001106075c,0000002.400s, 009.6C,00002191
2020-12-09 02:07:50 r, 20.76m,0000000001Hz,0001086392c,0000002.358s, 009.6C,00002191
2020-12-09 02:17:51 r, 20.72m,0000000001Hz,0001046571c,0000002.271s, 009.6C,00002191
2020-12-09 02:27:53 r, 20.48m,0000000001Hz,0000841180c,0000001.825s, 009.6C,00002191
2020-12-09 02:37:50 r, 20.65m,0000000001Hz,0000985203c,0000002.138s, 009.6C,00002191
2020-12-09 02:47:52 r, 20.41m,0000000001Hz,0000786621c,0000001.707s, 009.3C,00002191
2020-12-09 02:57:51 r, 20.35m,0000000001Hz,0000746976c,0000001.621s, 009.3C,00002191
2020-12-09 03:07:50 r, 20.28m,0000000001Hz,0000702698c,0000001.525s, 009.3C,00002191
2020-12-09 03:17:53 r, 20.52m,0000000000Hz,0000873497c,0000001.896s, 009.3C,00002191
2020-12-09 03:27:51 r, 20.59m,0000000000Hz,0000931469c,0000002.021s, 009.3C,00002191
2020-12-09 03:37:50 r, 20.57m,0000000000Hz,0000917322c,0000001.991s, 009.6C,00002191
2020-12-09 03:47:51 r, 20.57m,0000000000Hz,0000911259c,0000001.978s, 009.3C,00002191
2020-12-09 03:57:51 r, 20.55m,0000000000Hz,0000893811c,0000001.940s, 009.3C,00002191
2020-12-09 04:07:50 r, 20.54m,0000000001Hz,0000885177c,0000001.921s, 009.3C,00002191
2020-12-09 04:17:51 r, 20.50m,0000000001Hz,0000859088c,0000001.864s, 009.3C,00002191
2020-12-09 04:27:51 r, 20.47m,0000000000Hz,0000828587c,0000001.798s, 009.3C,00002191
2020-12-09 04:37:50 r, 20.44m,0000000001Hz,0000809177c,0000001.756s, 009.3C,00002191
2020-12-09 04:47:51 r, 20.42m,0000000000Hz,0000792659c,0000001.720s, 009.3C,00002191
2020-12-09 04:57:52 r, 20.40m,0000000000Hz,0000776169c,0000001.684s, 009.3C,00002191
2020-12-09 05:07:50 r, 20.38m,0000000001Hz,0000765922c,0000001.662s, 009.3C,00002191
2020-12-09 05:17:52 r, 20.34m,0000000001Hz,0000738992c,0000001.604s, 009.0C,00002191
2020-12-09 05:27:51 r, 20.32m,0000000000Hz,0000724494c,0000001.572s, 009.0C,00002191
2020-12-09 05:37:50 r, 20.30m,0000000001Hz,0000711638c,0000001.544s, 009.0C,00002191
2020-12-09 05:47:52 r, 20.28m,0000000001Hz,0000705636c,0000001.531s, 008.7C,00002191
2020-12-09 05:57:51 r, 20.28m,0000000000Hz,0000705386c,0000001.531s, 008.7C,00002191
2020-12-09 06:07:50 r, 20.24m,0000000001Hz,0000682953c,0000001.482s, 008.3C,00002191
2020-12-09 06:17:50 r, 20.22m,0000000000Hz,0000670928c,0000001.456s, 008.3C,00002191
2020-12-09 06:27:51 r, 20.37m,0000000000Hz,0000763046c,0000001.656s, 008.3C,00002191
2020-12-09 06:37:50 r, 20.15m,0000000000Hz,0000627098c,0000001.361s, 008.3C,00002191
2020-12-09 06:47:50 r, 19.96m,0000000001Hz,0000527233c,0000001.144s, 008.3C,00002191
2020-12-09 06:57:53 r, 19.18m,0000000001Hz,0000256164c,0000000.556s, 008.0C,00002191
2020-12-09 07:07:50 r, 18.00m,0000000006Hz,0000087159c,0000000.189s, 008.0C,00002191
2020-12-09 07:17:50 r, 16.54m,0000000020Hz,0000022739c,0000000.049s, 007.7C,00002191
2020-12-09 07:27:52 r, 14.85m,0000000095Hz,0000004796c,0000000.010s, 007.4C,00002191
2020-12-09 07:37:51 r, 12.99m,0000000539Hz,0000000000c,0000000.000s, 007.0C,00002191
2020-12-09 07:47:50 r, 11.05m,0000003201Hz,0000000000c,0000000.000s, 007.0C,00002191
2020-12-09 07:57:51 r, 09.41m,0000014486Hz,0000000000c,0000000.000s, 007.0C,00002191
2020-12-09 08:07:52 r, 08.21m,0000044135Hz,0000000000c,0000000.000s, 007.0C,00002191
2020-12-09 08:17:50 r, 07.36m,0000096424Hz,0000000000c,0000000.000s, 007.0C,00002191
2020-12-09 08:27:51 r, 06.78m,0000164762Hz,0000000000c,0000000.000s, 007.0C,00002191
2020-12-09 08:37:51 r, 06.35m,0000244129Hz,0000000000c,0000000.000s, 007.0C,00002191
2020-12-09 08:47:50 r, 06.02m,0000333311Hz,0000000000c,0000000.000s, 007.7C,00002191
2020-12-09 08:57:53 r, 00.00m,0000431860Hz,0000000000c,0000000.000s, 008.7C,00002191
2020-12-09 09:07:51 r, 00.00m,0000541219Hz,0000000000c,0000000.000s, 009.9C,00002191
2020-12-09 09:17:50 r, 00.00m,0000603057Hz,0000000000c,0000000.000s, 011.2C,00002191
2020-12-09 09:27:53 r, 00.00m,0000598335Hz,0000000000c,0000000.000s, 012.5C,00002191
2020-12-09 09:37:51 r, 00.00m,0000598158Hz,0000000000c,0000000.000s, 013.8C,00002191
2020-12-09 09:47:50 r, 00.00m,0000598069Hz,0000000000c,0000000.000s, 014.8C,00002191
2020-12-09 09:57:51 r, 00.00m,0000598043Hz,0000000000c,0000000.000s, 015.4C,00002191
2020-12-09 10:07:51 r, 00.00m,0000597952Hz,0000000000c,0000000.000s, 015.4C,00002191
2020-12-09 10:17:50 r, 00.00m,0000597986Hz,0000000000c,0000000.000s, 016.4C,00002191
2020-12-09 10:27:52 r, 00.00m,0000597875Hz,0000000000c,0000000.000s, 017.0C,00002191
2020-12-09 10:37:51 r, 00.00m,0000597713Hz,0000000000c,0000000.000s, 018.0C,00002191
2020-12-09 10:47:50 r, 00.00m,0000597753Hz,0000000000c,0000000.000s, 018.6C,00002191
2020-12-09 10:57:51 r, 00.00m,0000597650Hz,0000000000c,0000000.000s, 018.6C,00002191
2020-12-09 11:07:53 r, 00.00m,0000597590Hz,0000000000c,0000000.000s, 018.3C,00002191
2020-12-09 11:17:50 r, 00.00m,0000597600Hz,0000000000c,0000000.000s, 018.6C,00002191
2020-12-09 11:27:52 r, 00.00m,0000597591Hz,0000000000c,0000000.000s, 018.6C,00002191
2020-12-09 11:37:51 r, 00.00m,0000597495Hz,0000000000c,0000000.000s, 019.0C,00002191
2020-12-09 11:47:50 r, 00.00m,0000597634Hz,0000000000c,0000000.000s, 019.0C,00002191
2020-12-09 11:57:53 r, 00.00m,0000597531Hz,0000000000c,0000000.000s, 019.6C,00002191
2020-12-09 12:07:51 r, 00.00m,0000597508Hz,0000000000c,0000000.000s, 020.3C,00002191
2020-12-09 12:17:50 r, 00.00m,0000597516Hz,0000000000c,0000000.000s, 019.9C,00002191
2020-12-09 12:27:51 r, 00.00m,0000597426Hz,0000000000c,0000000.000s, 019.9C,00002191
2020-12-09 12:37:51 r, 00.00m,0000597516Hz,0000000000c,0000000.000s, 020.3C,00002191
2020-12-09 12:47:50 r, 00.00m,0000597484Hz,0000000000c,0000000.000s, 020.3C,00002191
2020-12-09 12:57:51 r, 00.00m,0000597428Hz,0000000000c,0000000.000s, 020.3C,00002191
2020-12-09 13:07:51 r, 00.00m,0000597601Hz,0000000000c,0000000.000s, 019.9C,00002191
2020-12-09 13:17:50 r, 00.00m,0000597563Hz,0000000000c,0000000.000s, 019.3C,00002191
2020-12-09 13:27:51 r, 00.00m,0000597595Hz,0000000000c,0000000.000s, 019.3C,00002191
2020-12-09 13:37:53 r, 00.00m,0000597571Hz,0000000000c,0000000.000s, 019.6C,00002191
2020-12-09 13:47:50 r, 00.00m,0000597659Hz,0000000000c,0000000.000s, 019.3C,00002191
2020-12-09 13:57:52 r, 00.00m,0000597664Hz,0000000000c,0000000.000s, 019.0C,00002191
2020-12-09 14:07:51 r, 00.00m,0000597610Hz,0000000000c,0000000.000s, 019.0C,00002191
2020-12-09 14:17:50 r, 00.00m,0000597635Hz,0000000000c,0000000.000s, 018.6C,00002191
2020-12-09 14:27:53 r, 00.00m,0000597576Hz,0000000000c,0000000.000s, 018.6C,00002191
2020-12-09 14:37:51 r, 00.00m,0000597681Hz,0000000000c,0000000.000s, 019.0C,00002191
2020-12-09 14:47:50 r, 00.00m,0000597540Hz,0000000000c,0000000.000s, 019.0C,00002191
2020-12-09 14:57:51 r, 00.00m,0000597492Hz,0000000000c,0000000.000s, 019.0C,00002191
2020-12-09 15:07:52 r, 00.00m,0000597603Hz,0000000000c,0000000.000s, 018.6C,00002191
2020-12-09 15:17:50 r, 00.00m,0000594822Hz,0000000000c,0000000.000s, 018.3C,00002191
2020-12-09 15:27:51 r, 00.00m,0000537682Hz,0000000000c,0000000.000s, 018.0C,00002191
2020-12-09 15:37:51 r, 00.00m,0000404847Hz,0000000000c,0000000.000s, 017.7C,00002191
2020-12-09 15:47:50 r, 06.04m,0000323992Hz,0000000000c,0000000.000s, 017.7C,00002191
2020-12-09 15:57:52 r, 06.48m,0000216137Hz,0000000000c,0000000.000s, 017.4C,00002191
2020-12-09 16:07:51 r, 07.16m,0000115075Hz,0000000000c,0000000.000s, 017.4C,00002191
2020-12-09 16:17:50 r, 07.66m,0000072790Hz,0000000000c,0000000.000s, 017.0C,00002191
2020-12-09 16:27:52 r, 08.37m,0000037997Hz,0000000000c,0000000.000s, 016.7C,00002191
2020-12-09 16:37:51 r, 09.16m,0000018394Hz,0000000000c,0000000.000s, 016.7C,00002191
2020-12-09 16:47:50 r, 10.52m,0000005271Hz,0000000000c,0000000.000s, 016.7C,00002191
2020-12-09 16:57:52 r, 12.69m,0000000706Hz,0000000000c,0000000.000s, 016.4C,00002191
2020-12-09 17:07:51 r, 14.73m,0000000107Hz,0000004314c,0000000.009s, 016.4C,00002191
2020-12-09 17:17:50 r, 16.42m,0000000023Hz,0000020430c,0000000.044s, 016.4C,00002191
2020-12-09 17:27:51 r, 17.72m,0000000007Hz,0000067115c,0000000.146s, 016.4C,00002191
2020-12-09 17:37:52 r, 18.63m,0000000003Hz,0000155130c,0000000.337s, 016.1C,00002191
2020-12-09 17:47:50 r, 19.03m,0000000002Hz,0000224835c,0000000.488s, 016.1C,00002191
2020-12-09 17:57:52 r, 19.30m,0000000002Hz,0000288979c,0000000.627s, 016.1C,00002191
2020-12-09 18:07:51 r, 19.36m,0000000001Hz,0000301532c,0000000.654s, 015.7C,00002191
2020-12-09 18:17:50 r, 19.44m,0000000002Hz,0000327345c,0000000.710s, 015.7C,00002191
2020-12-09 18:27:53 r, 19.37m,0000000001Hz,0000303443c,0000000.659s, 015.7C,00002191
2020-12-09 18:37:51 r, 19.44m,0000000002Hz,0000327292c,0000000.710s, 015.7C,00002191
2020-12-09 18:47:50 r, 19.19m,0000000002Hz,0000260065c,0000000.564s, 015.4C,00002191
2020-12-09 18:57:52 r, 19.30m,0000000001Hz,0000286235c,0000000.621s, 015.4C,00002191
2020-12-09 19:07:51 r, 19.33m,0000000002Hz,0000293521c,0000000.637s, 015.4C,00002191
2020-12-09 19:17:50 r, 19.30m,0000000001Hz,0000286786c,0000000.622s, 015.4C,00002191
2020-12-09 19:27:51 r, 19.33m,0000000002Hz,0000293583c,0000000.637s, 015.4C,00002191
2020-12-09 19:37:51 r, 19.43m,0000000001Hz,0000323240c,0000000.701s, 015.4C,00002191
2020-12-09 19:47:50 r, 19.44m,0000000002Hz,0000326338c,0000000.708s, 015.4C,00002191
2020-12-09 19:57:52 r, 19.39m,0000000001Hz,0000310169c,0000000.673s, 015.4C,00002191
2020-12-09 20:07:51 r, 19.46m,0000000001Hz,0000331040c,0000000.718s, 015.7C,00002191
2020-12-09 20:17:50 r, 19.48m,0000000001Hz,0000338735c,0000000.735s, 015.7C,00002191
2020-12-09 20:27:51 r, 19.49m,0000000001Hz,0000340844c,0000000.740s, 015.7C,00002191
2020-12-09 20:37:52 r, 19.40m,0000000001Hz,0000312159c,0000000.677s, 015.4C,00002191
2020-12-09 20:47:50 r, 19.44m,0000000001Hz,0000327249c,0000000.710s, 015.4C,00002191
2020-12-09 20:57:53 r, 19.46m,0000000001Hz,0000330337c,0000000.717s, 015.1C,00002191
2020-12-09 21:07:51 r, 19.48m,0000000002Hz,0000338725c,0000000.735s, 015.1C,00002191
2020-12-09 21:17:50 r, 19.45m,0000000002Hz,0000328129c,0000000.712s, 014.8C,00002191
2020-12-09 21:27:51 r, 19.51m,0000000001Hz,0000346745c,0000000.752s, 014.8C,00002191
2020-12-09 21:37:51 r, 19.58m,0000000001Hz,0000367562c,0000000.798s, 014.8C,00002191
2020-12-09 21:47:50 r, 19.65m,0000000001Hz,0000396499c,0000000.860s, 014.8C,00002191
2020-12-09 21:57:51 r, 19.66m,0000000001Hz,0000397490c,0000000.863s, 015.1C,00002191
2020-12-09 22:07:51 r, 19.67m,0000000001Hz,0000402214c,0000000.873s, 015.1C,00002191
2020-12-09 22:17:50 r, 19.67m,0000000001Hz,0000401234c,0000000.871s, 015.1C,00002191
2020-12-09 22:27:51 r, 19.62m,0000000001Hz,0000382879c,0000000.831s, 015.1C,00002191
2020-12-09 22:37:52 r, 19.68m,0000000001Hz,0000404295c,0000000.877s, 015.4C,00002191
2020-12-09 22:47:50 r, 19.67m,0000000001Hz,0000402241c,0000000.873s, 015.4C,00002191
2020-12-09 22:57:50 r, 19.62m,0000000001Hz,0000382041c,0000000.829s, 015.4C,00002191
2020-12-09 23:07:51 r, 19.62m,0000000001Hz,0000381457c,0000000.828s, 015.1C,00002191
2020-12-09 23:17:50 r, 19.69m,0000000001Hz,0000408055c,0000000.886s, 015.1C,00002191
2020-12-09 23:27:50 r, 19.72m,0000000001Hz,0000420406c,0000000.912s, 015.1C,00002191
2020-12-09 23:37:51 r, 19.72m,0000000001Hz,0000419572c,0000000.911s, 015.1C,00002191
2020-12-09 23:47:50 r, 19.70m,0000000001Hz,0000415593c,0000000.902s, 014.8C,00002191
2020-12-09 23:57:50 r, 19.83m,0000000001Hz,0000464413c,0000001.008s, 014.8C,00002191
